Date String (YYYY-MM-DD hh:mm:ss) UTC,Instrument flags,Ambient pressure (hPa),Sample flow (lpm),Bypass flow (lpm),Sample temperature (°C),Ambient temperature (°C),ASC tube jacket temperature (°C),LED temperature (°C),Box temperature (°C),Sample RH (%),Span deviation,Mass concentration (μg/m³),Mass concentration (μg/m³),Mass concentration (μg/m³)
DateTimeUTC,F1_M11,P_M11,Q1_M11,Q2_M11,T1_M11,T2_M11,T3_M11,T4_M11,T5_M11,U1_M11,ZSPAN_M11,X0_M11,X2_M11,X1_M11
2023-02-07 23:00:00,,0828.5,5.00,0.00,23.9,22.4,00.0,32.8,25.6,08.9,0000.0,0010.54,0001.95,0000.84
2023-02-07 23:01:00,,0828.6,4.98,0.00,23.9,22.4,00.0,32.8,25.6,08.7,0000.0,0010.18,0001.90,0000.83
2023-02-07 23:02:00,,0828.8,5.00,0.00,23.9,22.4,00.0,32.8,25.6,08.6,0000.0,0009.85,0001.85,0000.81
2023-02-07 23:03:00,,0829.0,4.99,0.00,23.9,22.4,00.0,32.8,25.6,08.7,0000.0,0009.80,0001.82,0000.80
2023-02-07 23:04:00,,0828.9,4.99,0.00,23.9,22.4,00.0,32.8,25.7,08.2,0000.0,0010.50,0001.79,0000.79
2023-02-07 23:05:00,,0829.0,5.00,0.00,23.9,22.4,00.0,32.8,25.6,08.2,0000.0,0010.41,0001.86,0000.78
2023-02-07 23:06:00,,0829.1,4.99,0.00,23.9,22.4,00.0,32.8,25.6,08.0,0000.0,0009.67,0001.87,0000.78
2023-02-07 23:07:00,,0829.0,5.01,0.00,23.9,22.4,00.0,32.8,25.6,07.8,0000.0,0009.63,0001.85,0000.77
2023-02-07 23:08:00,,0828.9,5.01,0.00,23.9,22.4,00.0,32.8,25.6,07.9,0000.0,0008.85,0001.88,0000.77
2023-02-07 23:09:00,,0829.1,5.02,0.00,23.9,22.4,00.0,32.8,25.6,07.9,0000.0,0008.38,0001.87,0000.76
2023-02-07 23:10:00,,0829.1,4.99,0.00,23.9,22.4,00.0,32.8,25.6,08.0,0000.0,0007.97,0001.85,0000.76
2023-02-07 23:11:00,,0829.0,5.00,0.00,23.9,22.5,00.0,32.8,25.6,08.0,0000.0,0007.83,0001.81,0000.76
2023-02-07 23:12:00,,0829.0,4.99,0.00,23.9,22.5,00.0,32.8,25.7,08.2,0000.0,0008.11,0001.82,0000.77
2023-02-07 23:13:00,,0829.0,4.99,0.00,23.9,22.5,00.0,32.8,25.7,08.3,0000.0,0008.01,0001.80,0000.78
2023-02-07 23:14:00,,0828.9,4.98,0.00,23.9,22.5,00.0,32.8,25.7,08.5,0000.0,0007.93,0001.83,0000.79
2023-02-07 23:15:00,,0829.0,5.00,0.00,23.9,22.5,00.0,32.8,25.7,08.4,0000.0,0007.71,0001.83,0000.81
2023-02-07 23:16:00,,0828.7,4.99,0.00,23.9,22.5,00.0,32.8,25.7,08.7,0000.0,0007.57,0001.92,0000.86
2023-02-07 23:17:00,,0829.0,4.99,0.00,23.9,22.5,00.0,32.8,25.7,08.9,0000.0,0007.49,0001.91,0000.91
2023-02-07 23:18:00,,0829.0,5.00,0.00,23.9,22.6,00.0,32.8,25.7,09.0,0000.0,0007.50,0001.96,0000.97
2023-02-07 23:19:00,,0829.1,5.01,0.00,24.0,22.6,00.0,32.8,25.8,09.2,0000.0,0008.20,0002.11,0001.07
2023-02-07 23:20:00,,0828.9,5.00,0.00,24.0,22.6,00.0,32.8,25.7,09.1,0000.0,0008.42,0002.22,0001.16
2023-02-07 23:21:00,,0828.8,5.00,0.00,24.0,22.6,00.0,32.8,25.7,08.9,0000.0,0008.85,0002.39,0001.27
2023-02-07 23:22:00,,0828.7,5.01,0.00,24.0,22.6,00.0,32.8,25.7,09.3,0000.0,0009.30,0002.53,0001.39
2023-02-07 23:23:00,,0828.7,4.99,0.00,24.0,22.7,00.0,32.8,25.8,11.3,0000.0,0009.52,0002.89,0001.62
2023-02-07 23:24:00,,0828.7,4.99,0.00,24.0,22.7,00.0,32.8,25.9,12.2,0000.0,0010.75,0003.31,0001.99
2023-02-07 23:25:00,,0828.7,5.02,0.00,24.0,22.8,00.0,32.8,25.9,12.4,0000.0,0011.63,0003.56,0002.39
2023-02-07 23:26:00,,0828.7,4.99,0.00,24.0,22.9,00.0,32.8,25.9,12.4,0000.0,0012.38,0003.85,0002.77
2023-02-07 23:27:00,,0828.7,4.98,0.00,24.1,22.9,00.0,32.8,25.9,12.6,0000.0,0013.73,0004.11,0003.12
2023-02-07 23:28:00,,0828.7,5.01,0.00,24.1,22.9,00.0,32.8,25.9,12.7,0000.0,0014.64,0004.42,0003.35
2023-02-07 23:29:00,,0828.7,5.00,0.00,24.1,23.0,00.0,32.8,26.0,12.6,0000.0,0015.22,0004.73,0003.57
2023-02-07 23:30:00,,0828.8,5.00,0.00,24.1,23.0,00.0,32.9,26.0,12.6,0000.0,0015.51,0004.97,0003.76
2023-02-07 23:31:00,,0829.3,5.01,0.00,24.1,23.1,00.0,32.9,26.0,12.7,0000.0,0016.62,0005.22,0003.95
2023-02-07 23:32:00,,0829.3,4.99,0.00,24.2,23.1,00.0,32.9,26.0,12.6,0000.0,0017.28,0005.43,0004.14
2023-02-07 23:33:00,,0829.2,5.00,0.00,24.2,23.1,00.0,32.9,26.1,12.6,0000.0,0017.69,0005.67,0004.33
2023-02-07 23:34:00,,0829.3,5.00,0.00,24.2,23.2,00.0,32.9,26.1,12.6,0000.0,0018.25,0005.85,0004.46
2023-02-07 23:35:00,,0829.3,5.01,0.00,24.2,23.2,00.0,32.9,26.1,12.6,0000.0,0017.82,0005.87,0004.51
2023-02-07 23:36:00,,0829.3,4.98,0.00,24.2,23.2,00.0,33.0,26.1,12.6,0000.0,0017.89,0005.94,0004.54
2023-02-07 23:37:00,,0829.3,5.01,0.00,24.3,23.2,00.0,33.0,26.2,12.6,0000.0,0017.98,0005.99,0004.57
2023-02-07 23:38:00,,0829.4,4.99,0.00,24.3,23.3,00.0,33.0,26.2,12.7,0000.0,0017.09,0006.02,0004.59
2023-02-07 23:39:00,,0829.3,5.02,0.00,24.3,23.3,00.0,33.0,26.2,12.5,0000.0,0017.32,0006.00,0004.61
2023-02-07 23:40:00,,0829.2,5.04,0.00,24.3,23.3,00.0,33.0,26.2,12.5,0000.0,0017.08,0006.01,0004.62
2023-02-07 23:41:00,,0829.1,4.97,0.00,24.4,23.3,00.0,33.0,26.3,12.5,0000.0,0017.74,0006.05,0004.63
2023-02-07 23:42:00,,0828.8,5.02,0.00,24.4,23.3,00.0,33.1,26.3,12.4,0000.0,0018.17,0006.08,0004.64
2023-02-07 23:43:00,,0828.9,5.03,0.00,24.4,23.3,00.0,33.1,26.3,12.3,0000.0,0017.77,0006.16,0004.66
2023-02-07 23:44:00,,0828.8,5.01,0.00,24.4,23.4,00.0,33.1,26.3,12.3,0000.0,0017.73,0006.22,0004.67
2023-02-07 23:45:00,,0828.8,4.99,0.00,24.4,23.4,00.0,33.1,26.3,12.3,0000.0,0018.01,0006.20,0004.67
2023-02-07 23:46:00,,0828.8,5.02,0.00,24.4,23.4,00.0,33.1,26.3,12.3,0000.0,0019.49,0006.30,0004.66
2023-02-07 23:47:00,,0828.9,5.00,0.00,24.5,23.4,00.0,33.2,26.3,12.3,0000.0,0019.37,0006.32,0004.66
2023-02-07 23:48:00,,0828.8,4.99,0.00,24.5,23.4,00.0,33.2,26.3,12.3,0000.0,0019.33,0006.29,0004.66
2023-02-07 23:49:00,,0828.9,5.00,0.00,24.5,23.4,00.0,33.2,26.4,12.4,0000.0,0019.78,0006.27,0004.65
2023-02-07 23:50:00,,0828.9,4.98,0.00,24.5,23.4,00.0,33.2,26.4,12.4,0000.0,0020.89,0006.32,0004.66
2023-02-07 23:51:00,,0829.0,4.97,0.00,24.5,23.4,00.0,33.2,26.4,12.3,0000.0,0021.40,0006.34,0004.67
2023-02-07 23:52:00,,0829.1,5.02,0.00,24.5,23.4,00.0,33.2,26.4,12.2,0000.0,0020.68,0006.36,0004.69
2023-02-07 23:53:00,,0829.1,4.96,0.00,24.5,23.4,00.0,33.2,26.4,12.2,0000.0,0019.93,0006.38,0004.71
2023-02-07 23:54:00,,0829.2,5.00,0.00,24.5,23.4,00.0,33.3,26.4,12.2,0000.0,0020.08,0006.37,0004.73
2023-02-07 23:55:00,,0829.2,4.98,0.00,24.6,23.4,00.0,33.3,26.4,12.2,0000.0,0020.23,0006.40,0004.75
2023-02-07 23:56:00,,0829.2,4.98,0.00,24.6,23.4,00.0,33.3,26.4,12.1,0000.0,0019.55,0006.39,0004.77
2023-02-07 23:57:00,,0829.3,5.02,0.00,24.6,23.5,00.0,33.3,26.5,12.0,0000.0,0018.03,0006.30,0004.77
2023-02-07 23:58:00,,0829.2,4.97,0.00,24.6,23.5,00.0,33.3,26.5,11.9,0000.0,0017.75,0006.30,0004.78
2023-02-07 23:59:00,,0829.1,5.00,0.00,24.6,23.5,00.0,33.3,26.5,11.9,0000.0,0017.68,0006.35,0004.78
